Showing default

IRIDIUM 172, 43927

Orbit data source: Space-Track

IRIDIUM 172, 43927 is a payload satellite owned by Iridium (US) in LEO that was launched on Fri, 11 Jan 2019 UTC via an FALCON 9 launch vehicle from the Air Force Western Test Range (AFWTR). Payload-class satellites include a variety of spacecraft equipped with specific instruments for various scientific and technological missions. These include communications satellites like Starlink; space stations such as the ISS; scientific satellites like the Hubble; Earth observation satellites from companies like Planet Labs, Umbra, and HawkEye 360; GPS; miniature CubeSats for education and research; and military/defense satellites.

Loading next visibility...
Identifier
43927, 2019-002F
Orbit
LEO
Country
Flag of USUS
Related business
Manufacturer
NGIS SSG Gilbert
Mission
Operational Commercial Communications
Bus & Motor
ELITEBUS, Unknown motor
Mass
860 kg wet, 700 kg dry
Launch date (UTC)
2019-01-11 (7 years ago)
Launch vehicle
FALCON 9
Launch site
Air Force Western Test Range (AFWTR)
Object type
Payload
Rocket body
Debris
Shape & HBR
Trap Box + 2 Pan, 4.7 m
Radar Cross Section
14.423 m², Large (>1 m²)

Expand to show TLE details & history
Last TLE update: 15 hours ago

TLE from 15 hours ago
0 IRIDIUM 172
1 43927U 19002F   25259.61799610  .00000011  00000-0 -31115-5 0  9998
2 43927  86.3926 107.9622 0001733  90.2279 269.9115 14.34217769349756
Epoch: 2025-09-16T14:49Z
TLE epoch observation values (Epoch: 2025-09-16T14:49:54.863Z)
Latitude
-0.00004°
Longitude
-110.32211°
Altitude
780.72 km
Speed
7.463 km/s
True Right ascension
07h 11m 50s
True Declination
0° 00' 00"
Sunlit
Object was in daylight at epoch
Visualization orbit readout
Latitude
Unknown
Longitude
Unknown
Altitude
Unknown
Speed
Unknown
Apparent Right ascension
Unknown
Apparent Declination
Unknown
Sunlit
N/A
Visualization observer readout
Local Sidereal Time
22:14:05
Azimuth
Unknown
Elevation
Unknown
Doppler factor
Unknown
Orbital elements
Apogee altitude
775.871 km
Perigee altitude
773.392 km
Semi-major axis
7,152.769 km
Eccentricity
0.00017
Inclination
86.3926°
RAAN
107.9622°
Arg. of periapsis
90.2279°
True anomaly
269.89164°
Mean anomaly
269.9115°
Eccentric anomaly
269.90157°
Mean motion
3.58783 °/min
Orbital period
100.34 mins
BSTAR
-0.0000031115
Loading maneuver chart data...
Computing Atmospheric mass density...
Loading historical data...
Loading historical data...
Loading historical data...
Loading historical data...
Loading historical data...
Loading historical data...
Loading historical data...

Documentation

Showing up to 5 results
|